{"data":{"norad_id":48778,"intl_designator":"2021-045M","name":"ONEWEB-0245","alt_names":[],"object_type":"PAYLOAD","status":"ACTIVE","operator":null,"country":"UK","launch_date":"2021-05-28","launch_site_code":"VOSTO","launch_vehicle":null,"mission":null,"orbit_class":"UNKNOWN","rcs_meters":null,"size_class":null,"mass_kg":null,"dimensions":null,"purposes":["comms"],"wikipedia_slug":null,"has_3d_model":false,"image_url":null,"decayed_at":null,"tle_current":{"epoch":"2026-09-20T05:08:29.026176Z","epoch_age_seconds":42990,"freshness":"FRESH","line1":"1 48778U 21045M   26263.21422484  .00000057  00000+0  11606-3 0  9990","line2":"2 48778  87.8991 240.2503 0001813  81.0000 279.1336 13.15549952256879","mean_motion":13.15549952,"eccentricity":0.0001813,"inclination_deg":87.8991,"raan_deg":240.2503,"arg_perigee_deg":81,"mean_anomaly_deg":279.1336,"bstar":0.00011606,"rev_number":25687,"period_min":109.45992569958,"perigee_km":1200.3911458162,"apogee_km":1203.1396184199,"semimajor_km":7579.902382118,"source":"CELESTRAK","updated_at":"2026-09-20T09:00:44.617225Z"}}}